Telluride, CO

9:36 AM MST on December 10, 2019 (GMT -0700)
Telluride Regional

Weather History for KTEX - October, 2019

Change the Weather History Date:

Sunday, October 6, 2019

  Actual Average Record
Temperature  
Mean Temperature 44 °F -  
Max Temperature 55 °F 55 °F 68 °F (1997)
Min Temperature 33 °F 35 °F 28 °F (2002)
Degree Days  
Heating Degree Days 21    
Moisture  
Dew Point 7 °F    
Average Humidity 24    
Maximum Humidity 35    
Minimum Humidity 12    
Precipitation  
Precipitation 0.00 in - - ()
Sea Level Pressure  
Sea Level Pressure 30.43 in    
Wind  
Wind Speed 6 mph (SSW)    
Max Wind Speed 14 mph    
Max Gust Speed 20 mph    
Visibility 10 miles    
Events      
Averages and records for this station are not official NWS values.
T = Trace of Precipitation, MM = Missing Value Source: NWS Daily Summary

Daily Weather History Graph

Daily Weather History Graph

Search for Another Location

Airport or City:

Astronomy

Oct. 06, 2019 Rise Set
Actual Time 7:11 AM MDT 6:47 PM MDT
Civil Twilight 6:45 AM MDT 7:13 PM MDT
Nautical Twilight 6:14 AM MDT 7:43 PM MDT
Astronomical Twilight 5:44 AM MDT 8:14 PM MDT
Moon 3:21 PM MDT (10/6) 12:20 AM MDT (10/6)
Length of Visible Light 12h 28m
Length of Day
11h 35m
First Quarter, 60% of the Moon is Illuminated
Oct 6
First Quarter
Oct 13
Full
Oct 21
Last Quarter
Oct 27
New
Nov 4
First Quarter

Hourly Weather History & Observations

Time (MDT) Temp. Windchill Dew Point Humidity Pressure Visibility Wind Dir Wind Speed Gust Speed Precip Events Conditions
12:15 AM 39.2 °F 37.0 °F 8.6 °F 28% 30.35 in 10.0 mi East 3.5 mph - N/A   Clear
12:35 AM 41.0 °F 35.8 °F 8.6 °F 26% 30.35 in - ESE 8.1 mph - N/A   Clear
12:55 AM 39.2 °F 33.6 °F 10.4 °F 31% 30.35 in - ESE 8.1 mph - N/A   Clear
1:15 AM 39.2 °F 35.0 °F 8.6 °F 28% 30.35 in - SE 5.8 mph - N/A   Clear
1:35 AM 39.2 °F 34.2 °F 8.6 °F 28% 30.35 in - SE 6.9 mph - N/A   Clear
1:55 AM 37.4 °F 32.8 °F 8.6 °F 30% 30.35 in - SE 5.8 mph - N/A   Clear
2:15 AM 37.4 °F 32.8 °F 8.6 °F 30% 30.35 in - SE 5.8 mph - N/A   Clear
2:35 AM 37.4 °F 32.1 °F 8.6 °F 30% 30.36 in - SE 6.9 mph - N/A   Clear
2:55 AM 37.4 °F 33.8 °F 8.6 °F 30% 30.36 in - SE 4.6 mph - N/A   Clear
3:15 AM 37.4 °F 32.8 °F 8.6 °F 30% 30.35 in - SE 5.8 mph - N/A   Clear
3:35 AM 37.4 °F 32.8 °F 8.6 °F 30% 30.35 in - SE 5.8 mph - N/A   Clear
3:55 AM 35.6 °F 32.8 °F 8.6 °F 33% 30.35 in - SE 3.5 mph - N/A   Clear
4:15 AM 35.6 °F 30.7 °F 8.6 °F 33% 30.35 in - SE 5.8 mph - N/A   Clear
4:35 AM 35.6 °F 30.7 °F 8.6 °F 33% 30.36 in - SE 5.8 mph - N/A   Clear
4:55 AM 35.6 °F 30.7 °F 8.6 °F 33% 30.36 in - SE 5.8 mph - N/A   Clear
5:15 AM 35.6 °F 30.7 °F 8.6 °F 33% 30.37 in - SSE 5.8 mph - N/A   Clear
5:35 AM 35.6 °F 32.8 °F 8.6 °F 33% 30.37 in - SE 3.5 mph - N/A   Clear
5:55 AM 35.6 °F 29.9 °F 8.6 °F 33% 30.37 in - SE 6.9 mph - N/A   Clear
6:15 AM 33.8 °F - 6.8 °F 32% 30.38 in - Calm Calm - N/A   Clear
6:35 AM 33.8 °F 29.6 °F 6.8 °F 32% 30.39 in - SE 4.6 mph - N/A   Clear
6:55 AM 33.8 °F - 8.6 °F 35% 30.39 in - Calm Calm - N/A   Clear
7:15 AM 33.8 °F - 6.8 °F 32% 30.40 in - Calm Calm - N/A   Clear
7:35 AM 33.8 °F - 8.6 °F 35% 30.41 in - Calm Calm - N/A   Clear
7:55 AM 33.8 °F - 8.6 °F 35% 30.41 in - Calm Calm - N/A   Clear
8:15 AM 35.6 °F - 8.6 °F 33% 30.42 in - Calm Calm - N/A   Clear
8:35 AM 37.4 °F - 8.6 °F 30% 30.43 in - Calm Calm - N/A   Clear
8:55 AM 39.2 °F - 8.6 °F 28% 30.44 in - Calm Calm - N/A   Clear
9:15 AM 42.8 °F - 6.8 °F 23% 30.44 in - Calm Calm - N/A   Clear
9:35 AM - - - N/A% - - North - - N/A   Unknown
9:55 AM 44.6 °F - 8.6 °F 23% 30.46 in 10.0 mi Calm Calm - N/A   Clear
10:15 AM 44.6 °F 40.2 °F 10.4 °F 25% 30.46 in 10.0 mi West 8.1 mph - N/A   Clear
10:35 AM 46.4 °F 42.9 °F 10.4 °F 23% 30.46 in 10.0 mi West 6.9 mph - N/A   Clear
10:55 AM 48.2 °F - 10.4 °F 22% 30.46 in 10.0 mi West 6.9 mph - N/A   Clear
11:15 AM 50.0 °F - 10.4 °F 20% 30.46 in 10.0 mi West 8.1 mph - N/A   Clear
11:35 AM 50.0 °F - 10.4 °F 20% 30.46 in 10.0 mi West 11.5 mph - N/A   Clear
11:55 AM 50.0 °F - 10.4 °F 20% 30.46 in 10.0 mi West 11.5 mph 19.6 mph N/A   Clear
12:15 PM 50.0 °F - 8.6 °F 19% 30.46 in 10.0 mi West 11.5 mph - N/A   Clear
12:35 PM 51.8 °F - 8.6 °F 18% 30.46 in 10.0 mi West 13.8 mph 17.3 mph N/A   Clear
12:55 PM 51.8 °F - 5.0 °F 15% 30.46 in 10.0 mi West 10.4 mph - N/A   Clear
1:15 PM 51.8 °F - 8.6 °F 18% 30.45 in 10.0 mi SW 10.4 mph - N/A   Clear
1:35 PM 53.6 °F - 8.6 °F 16% 30.45 in 10.0 mi WSW 10.4 mph - N/A   Clear
1:55 PM 53.6 °F - 6.8 °F 15% 30.45 in 10.0 mi SW 6.9 mph - N/A   Clear
2:15 PM 55.4 °F - 5.0 °F 13% 30.44 in 10.0 mi West 9.2 mph - N/A   Clear
2:35 PM 53.6 °F - 6.8 °F 15% 30.44 in 10.0 mi West 11.5 mph 16.1 mph N/A   Clear
2:55 PM 55.4 °F - 6.8 °F 14% 30.44 in 10.0 mi West 10.4 mph - N/A   Clear
3:15 PM 55.4 °F - 6.8 °F 14% 30.44 in 10.0 mi West 11.5 mph 16.1 mph N/A   Clear
3:35 PM 53.6 °F - 3.2 °F 13% 30.44 in 10.0 mi West 11.5 mph 16.1 mph N/A   Clear
3:55 PM 55.4 °F - 3.2 °F 12% 30.44 in 10.0 mi West 11.5 mph 17.3 mph N/A   Clear
4:15 PM 55.4 °F - 5.0 °F 13% 30.43 in 10.0 mi West 10.4 mph - N/A   Clear
4:35 PM 55.4 °F - 5.0 °F 13% 30.43 in 10.0 mi West 13.8 mph 18.4 mph N/A   Clear
4:55 PM 55.4 °F - 3.2 °F 12% 30.43 in 10.0 mi West 10.4 mph - N/A   Clear
5:15 PM 55.4 °F - 3.2 °F 12% 30.43 in 10.0 mi West 10.4 mph - N/A   Clear
5:35 PM 53.6 °F - 3.2 °F 13% 30.43 in 10.0 mi West 11.5 mph - N/A   Clear
5:55 PM 53.6 °F - 3.2 °F 13% 30.44 in 10.0 mi West 11.5 mph - N/A   Clear
6:15 PM 51.8 °F - 3.2 °F 14% 30.45 in 10.0 mi West 8.1 mph - N/A   Clear
6:35 PM 50.0 °F - 3.2 °F 15% 30.45 in 10.0 mi West 6.9 mph - N/A   Clear
6:55 PM 48.2 °F - 3.2 °F 16% 30.46 in 10.0 mi West 3.5 mph - N/A   Clear
7:15 PM 46.4 °F - 3.2 °F 17% 30.47 in 10.0 mi Calm Calm - N/A   Clear
7:35 PM 46.4 °F - 3.2 °F 17% 30.47 in 10.0 mi Calm Calm - N/A   Clear
7:55 PM 44.6 °F - 3.2 °F 18% 30.48 in 10.0 mi Calm Calm - N/A   Clear
8:15 PM 44.6 °F - 5.0 °F 20% 30.48 in 10.0 mi Calm Calm - N/A   Clear
8:55 PM 41.0 °F 38.0 °F 5.0 °F 23% 30.49 in 10.0 mi SE 4.6 mph - N/A   Clear
9:15 PM 41.0 °F - 5.0 °F 23% 30.50 in - Calm Calm - N/A   Clear
9:35 PM 39.2 °F - 5.0 °F 24% 30.50 in - Calm Calm - N/A   Clear
9:55 PM 37.4 °F 32.8 °F 5.0 °F 26% 30.51 in - SE 5.8 mph - N/A   Clear
10:15 PM 37.4 °F 32.8 °F 5.0 °F 26% 30.51 in - SE 5.8 mph - N/A   Clear
10:35 PM 35.6 °F 29.9 °F 5.0 °F 28% 30.51 in - SE 6.9 mph - N/A   Clear
10:55 PM 35.6 °F 30.7 °F 5.0 °F 28% 30.51 in - SE 5.8 mph - N/A   Clear
11:15 PM 35.6 °F 32.8 °F 5.0 °F 28% 30.51 in - ESE 3.5 mph - N/A   Clear
11:35 PM 35.6 °F 30.7 °F 5.0 °F 28% 30.51 in - SE 5.8 mph - N/A   Clear
11:55 PM 35.6 °F - 5.0 °F 28% 30.50 in - Calm Calm - N/A   Clear